Hourly Data Report for August 16, 2022

TORONTO CITY
ONTARIO
Current Station Operator: ECCC - MSC

43°40'00.000" N
79°24'00.000" W
112.50 m
6158355
71508
XTO

Download Data

Hourly Data (August 2022)
Hourly Data Report for August 16, 2022
TIME
LST
Temp Definition
°C
Dew Point Definition
°C
Rel Hum Definition
%
Precip. Amount Definition
mm

Wind Dir Definition
10's deg

Wind Spd Definition
km/h
Visibility Definition
km
Stn Press Definition
kPa
Hmdx Definition


Wind Chill Definition


Weather Definition


00:00 21.6 12.8 57 0.0       100.39     LegendNANA
01:00 21.2 12.1 56 0.0       100.38     LegendNANA
02:00 20.7 11.7 56 0.0       100.37     LegendNANA
03:00 20.4 11.7 57 0.0       100.37     LegendNANA
04:00 20.0 12.0 60 0.0       100.38     LegendNANA
05:00 19.7 12.0 61 0.0       100.41     LegendNANA
06:00 19.5 12.3 63 0.0       100.47     LegendNANA
07:00 20.5 12.6 61 0.0       100.50     LegendNANA
08:00 22.2 13.2 57 0.0       100.53 25   LegendNANA
09:00 24.1 10.8 43 0.0       100.55 26   LegendNANA
10:00 25.8 10.6 39 0.0       100.58 27   LegendNANA
11:00 25.7 13.0 45 0.0       100.59 28   LegendNANA
12:00 25.2 13.6 49 0.0       100.56 28   LegendNANA
13:00 25.5 12.9 46 0.0       100.56 28   LegendNANA
14:00 26.3 14.3 48 0.0       100.53 30   LegendNANA
15:00 26.5 12.4 41 0.0       100.47 29   LegendNANA
16:00 25.4 13.2 47 0.0       100.46 28   LegendNANA
17:00 24.4 13.8 51 0.0       100.46 28   LegendNANA
18:00 24.7 13.3 49 0.0       100.50 28   LegendNANA
19:00 24.1 12.1 47 0.0       100.52 26   LegendNANA
20:00 22.9 12.7 52 0.0       100.56 26   LegendNANA
21:00 22.4 13.1 56 0.0       100.52 25   LegendNANA
22:00 22.0 13.5 59 0.0       100.49 25   LegendNANA
23:00 21.5 13.3 60 0.0       100.50     LegendNANA

Notes on Data Quality.

Legend

  • E = Estimated
  • M = Missing
  • NA = Not Available*
  • [empty] = Indicates an unobserved value
Date modified: